Погода в Бага-Буруле

Россия / Республика Калмыкия     45°59′51″N   44°35′57″E
темп.,
°C
ветер,
м/с
пор.,
м/с
влажн.,
%
обл.,
%
осадки,
мм/ч
давл.,
гПа
погр.,
м
19 сентября, вс
вс1900:00+15юв5116099 0.0 1017274
03:00+14юв4107250 0.0 1017243
06:00+13вюв4108650 0.0 1018248
09:00+18вюв8961100 0.0 1017819
12:00+20вюв794996 0.0 10161192
15:00+23вюв77416 0.0 10151574
18:00+20юв711505 0.0 1015463
21:00+17вюв712555 0.0 1015423
20 сентября, пн
пн2000:00+16вюв61161100 0.0 1015394
03:00+15юв4965100 0.0 1014306
06:00+16вюв2269100 0.0 101491
09:00+19ююв2355100 0.1 1014410
12:00+24зюз134291 0.0 10141212
15:00+27з493594 0.0 10132444
18:00+23сз334789 0.0 101360
21:00+19юз8127126 0.9 1015392
21 сентября, вт
вт2100:00+19юз35674 0.1 101599
03:00+17юз366994 0.1 101596
06:00+17юз34738 0.1 101565
09:00+22ююз345488 0.1 1015481
12:00+25ю3539100 0.0 10131536
15:00+28юв6733100 0.0 10102030
18:00+25вюв6104068 0.0 1009315
21:00+19з91275100 1.4 1012554
22 сентября, ср
ср2200:00+17зсз478248 1.1 1012371
03:00+17зсз698571 1.2 1012592
06:00+15зсз6978100 0.0 1014720
09:00+16зсз6760100 0.0 1015856
12:00+16зсз5645100 0.1 1015961
15:00+17зсз4547100 0.1 1014998
18:00+16зсз3548100 0.0 1015208
21:00+16зсз3450100 0.0 1016235
23 сентября, чт
чт2300:00+16ссз2451100 0.0 1015171
03:00+15св3552100 0.0 1015307
06:00+14св4654100 0.0 1015447
09:00+14св5758100 0.1 1014456
12:00+17св6751100 0.0 1012787
15:00+18св5757100 0.0 1010785
18:00+17св3362100 0.0 100949
21:00+16ссз346778 0.0 100755